Waarnemingen

Advertentie
Mijn weer
Pau, Frankrijk (7610): temperatuur & dauwpunt: 17.01.2018 08:00:00 - 23.01.2018 08:00:00 (CET)Pau, Frankrijk (7610): temperatuur 5cm: 17.01.2018 08:00:00 - 23.01.2018 08:00:00 (CET)Pau, Frankrijk (7610): temperatuur -20cm & temperatuur -100cm: 17.01.2018 08:00:00 - 23.01.2018 08:00:00 (CET)Pau, Frankrijk (7610): windsnelheid & windstoten: 17.01.2018 08:00:00 - 23.01.2018 08:00:00 (CET)Pau, Frankrijk (7610): windrichting: 17.01.2018 08:00:00 - 23.01.2018 08:00:00 (CET)Pau, Frankrijk (7610): luchtdruk: 17.01.2018 08:00:00 - 23.01.2018 08:00:00 (CET)Pau, Frankrijk (7610): zicht: 17.01.2018 08:00:00 - 23.01.2018 08:00:00 (CET)Pau, Frankrijk (7610): Zonneschijnduur: 17.01.2018 08:00:00 - 23.01.2018 08:00:00 (CET)Pau, Frankrijk (7610): neerslag: 17.01.2018 08:00:00 - 23.01.2018 08:00:00 (CET)
Datum & Tijd tt [°C] td [°C] tt 5cm [°C] tt -20cm [°C] tt -100cm [°C] ff [km/u] ff [kn] fx [km/u] fx [kn] dd ppp [hPa] vv [km] sd [min] rr [mm]
23.01.2018 08:00:00 8,7 8,6 8,1 10,8 10,7 4 2 10 6 OZO 1029,3 4,0 0 0,0
23.01.2018 07:00:00 9,0 8,9 8,4 10,8 10,7 9 5 13 7 ZZO 1029,2 1,0 0 0,0
23.01.2018 06:00:00 9,6 9,5 9,5 10,9 10,7 7 4 10 6 ZZO 1028,9 0,4 0 0,0
23.01.2018 05:00:00 10,1 9,9 9,8 10,9 10,6 4 2 8 5 ZZO 1028,8 0,2 0 0,0
23.01.2018 04:00:00 9,6 9,5 8,2 10,9 10,7 4 2 5 3 Z 1028,9 0,1 0 0,0
23.01.2018 03:00:00 9,3 9,0 5,2 10,9 10,7 0 0 4 2 N 1029,2 0,1 0 0,0
23.01.2018 02:00:00 9,7 8,9 6,7 10,9 10,7 0 0 7 4 N 1029,2 0,8 0 0,0
23.01.2018 01:00:00 11,1 10,5 10,1 10,9 10,6 5 3 13 7 ZW 1029,4 59 0 0,0
23.01.2018 00:00:00 11,3 10,8 10,4 10,9 10,6 10 5 16 9 WZW 1029,6 60 0 0,2
22.01.2018 23:00:00 11,3 10,8 10,8 10,9 10,6 10 6 15 8 WZW 1029,6 19 0 0,0
22.01.2018 22:00:00 11,5 11,2 11,1 10,9 10,6 10 5 21 12 WZW 1029,4 8 0 0,2
22.01.2018 21:00:00 11,3 11,0 11,2 10,9 10,6 11 6 19 11 WZW 1029,5 6 0 0,4
22.01.2018 20:00:00 11,4 10,9 11,2 10,9 10,6 13 7 23 12 WZW 1029,1 2,2 0 0,2
22.01.2018 19:00:00 11,3 10,8 11,1 10,8 10,6 16 9 31 17 WZW 1028,7 3,7 0 0,6
22.01.2018 18:00:00 11,5 10,9 11,2 10,8 10,6 20 11 37 20 WZW 1028,1 3,5 0 0,0
22.01.2018 17:00:00 11,7 10,9 11,4 10,8 10,6 19 11 36 19 W 1027,7 8 0 0,2
22.01.2018 16:00:00 11,7 10,8 11,5 10,8 10,6 23 12 35 19 W 1027,3 16 0 0,2
22.01.2018 15:00:00 12,4 10,6 12,2 10,7 10,6 22 12 41 22 W 1027,0 8 0 0,0
22.01.2018 14:00:00 13,3 9,9 13,1 10,7 10,6 31 17 49 27 W 1026,9 18 0 0,0
22.01.2018 13:00:00 13,7 10,1 13,4 10,7 10,6 26 14 39 21 W 1027,4 50 0 0,0
22.01.2018 12:00:00 13,0 10,2 12,4 10,7 10,6 20 11 35 19 WZW 1028,4 57 0 0,0
22.01.2018 11:00:00 12,5 10,7 11,7 10,7 10,6 17 9 27 15 W 1028,7 56 0 0,0
22.01.2018 10:00:00 11,7 10,9 11,2 10,7 10,6 16 8 24 13 WZW 1028,3 32 4 0,0
22.01.2018 09:00:00 11,5 11,0 11,1 10,7 10,6 16 9 26 14 W 1028,4 19 0 0,4
22.01.2018 08:00:00 11,6 11,0 10,8 10,7 10,5 16 9 24 13 W 1027,9 16 0 0,2
22.01.2018 07:00:00 11,6 11,0 11,1 10,7 10,6 12 6 22 12 W 1027,5 4,8 0 0,2
22.01.2018 06:00:00 11,7 11,2 11,3 10,7 10,6 16 9 24 13 WZW 1027,6 8 0 0,6
22.01.2018 05:00:00 11,5 10,9 11,4 10,7 10,5 15 8 24 13 WZW 1027,8 4,9 0 0,2
22.01.2018 04:00:00 11,7 11,2 11,4 10,6 10,5 13 7 21 11 WZW 1027,9 10 0 0,4
22.01.2018 03:00:00 11,6 11,1 11,4 10,7 10,6 13 7 22 12 ZW 1028,0 4,0 0 0,4
22.01.2018 02:00:00 11,7 11,4 11,5 10,7 10,6 16 9 25 14 WZW 1028,1 3,2 0 0,5
22.01.2018 01:00:00 11,6 11,3 11,5 10,6 10,5 16 9 23 13 ZW 1028,7 3,9 0 0,8
22.01.2018 00:00:00 11,6 11,3 11,5 10,6 10,5 12 7 29 16 WZW 1028,7 2,7 0 0,6
21.01.2018 23:00:00 11,8 11,5 11,5 10,6 10,5 17 9 25 13 WZW 1028,7 3,8 0 0,6
21.01.2018 22:00:00 11,7 11,4 11,5 10,6 10,5 16 9 26 14 WZW 1028,8 2,5 0 0,8
21.01.2018 21:00:00 11,7 11,4 11,5 10,6 10,5 14 8 23 12 WZW 1028,9 3,5 0 0,6
21.01.2018 20:00:00 11,6 11,1 11,4 10,5 10,5 17 9 29 16 WZW 1028,9 3,2 0 0,4
21.01.2018 19:00:00 11,8 11,3 11,5 10,5 10,5 19 10 37 20 W 1028,7 6 0 0,2
21.01.2018 18:00:00 11,9 11,3 11,6 10,5 10,5 22 12 36 19 W 1028,2 6 0 0,4
21.01.2018 17:00:00 12,0 11,5 11,9 10,4 10,5 16 8 39 21 W 1028,1 1,9 0 1,0
21.01.2018 16:00:00 12,3 11,7 11,9 10,4 10,5 21 11 40 22 W 1027,7 2,4 0 0,2
21.01.2018 15:00:00 12,2 11,4 12,1 10,3 10,5 30 16 52 28 W 1027,3 6 0 0,4
21.01.2018 14:00:00 12,5 11,7 12,3 10,3 10,5 29 15 53 29 W 1027,4 5 0 0,4
21.01.2018 13:00:00 12,7 12,1 12,4 10,3 10,5 21 11 35 19 W 1027,5 3,8 0 2,8
21.01.2018 12:00:00 12,7 12,2 12,1 10,2 10,5 24 13 35 19 W 1027,2 2,0 0 1,1
21.01.2018 11:00:00 12,3 11,8 12,0 10,2 10,5 21 11 32 18 W 1026,8 3,8 0 1,4
21.01.2018 10:00:00 12,1 11,6 11,8 10,2 10,5 19 11 31 17 W 1026,2 2,9 0 1,2
21.01.2018 09:00:00 12,1 11,6 11,7 10,2 10,5 19 10 30 16 W 1025,6 3,1 0 0,4
21.01.2018 08:00:00 12,0 11,5 11,7 10,1 10,5 19 10 32 17 W 1025,1 2,2 0 0,2
21.01.2018 07:00:00 12,0 11,5 11,7 10,0 10,5 20 11 36 19 W 1024,5 2,3 0 0,6
21.01.2018 06:00:00 12,0 11,4 11,7 10,0 10,5 23 13 41 22 W 1024,2 4,5 0 0,6
21.01.2018 05:00:00 12,1 11,6 11,7 10,0 10,5 24 13 36 19 W 1024,2 2,3 0 0,6
21.01.2018 04:00:00 11,9 11,4 11,7 9,9 10,5 25 13 39 21 W 1024,2 5 0 0,2
21.01.2018 03:00:00 12,0 11,5 11,7 9,9 10,5 25 13 39 21 W 1024,1 3,7 0 0,4
21.01.2018 02:00:00 12,1 11,5 11,7 9,8 10,5 26 14 37 20 W 1023,7 3,3 0 1,0
21.01.2018 01:00:00 11,8 11,3 11,6 9,8 10,5 27 14 38 21 W 1023,5 3,7 0 1,2
21.01.2018 00:00:00 11,9 11,4 11,6 9,7 10,5 24 13 40 22 W 1023,2 2,0 0 2,6
20.01.2018 23:00:00 11,9 11,4 11,4 9,7 10,5 26 14 45 25 W 1022,9 2,7 0 3,1
20.01.2018 22:00:00 11,8 11,3 11,4 9,7 10,5 26 14 46 25 W 1022,7 2,1 0 1,0
20.01.2018 21:00:00 11,8 11,2 11,3 9,6 10,5 29 16 48 26 W 1022,5 2,9 0 1,0
20.01.2018 20:00:00 11,6 11,0 11,0 9,6 10,5 28 15 42 23 W 1022,0 3,1 0 2,2
20.01.2018 19:00:00 11,4 10,8 10,8 9,6 10,5 28 15 45 25 W 1021,5 2,6 0 3,0
20.01.2018 18:00:00 11,3 10,5 10,8 9,6 10,5 27 15 50 27 W 1020,9 3,4 0 2,4
20.01.2018 17:00:00 11,1 10,5 10,3 9,6 10,5 32 17 51 28 W 1020,2 2,9 0 2,1
20.01.2018 16:00:00 10,5 9,7 10,0 9,5 10,5 29 16 46 25 WZW 1020,0 7 0 2,8
20.01.2018 15:00:00 10,1 9,3 9,7 9,5 10,5 25 13 38 20 WZW 1019,9 3,2 0 0,8
20.01.2018 14:00:00 10,4 8,8 9,6 9,5 10,5 25 13 48 26 WZW 1020,3 11 0 0,4
20.01.2018 13:00:00 10,5 7,7 8,3 9,6 10,5 32 17 58 31 WZW 1020,8 19 0 0,0
20.01.2018 12:00:00 10,8 5,1 8,2 9,6 10,4 36 19 59 32 W 1021,1 13 0 0,6
20.01.2018 11:00:00 11,6 4,6 10,4 9,6 10,4 27 15 42 23 W 1021,0 57 0 0,0
20.01.2018 10:00:00 10,7 4,8 9,3 9,6 10,5 26 14 45 24 W 1021,3 59 0 0,0
20.01.2018 09:00:00 9,7 4,5 7,4 9,7 10,5 11 6 20 11 ZW 1020,7 60 0 0,0
20.01.2018 08:00:00 9,0 4,4 7,5 9,7 10,5 13 7 22 12 ZW 1021,5 60 0 0,0
20.01.2018 07:00:00 8,2 4,6 5,9 9,7 10,4 8 5 19 10 WZW 1021,9 60 0 0,0
20.01.2018 06:00:00 7,8 4,9 6,1 9,8 10,5 14 7 18 10 ZZW 1022,2 60 0 0,0
20.01.2018 05:00:00 7,4 5,4 6,1 9,8 10,5 5 3 14 8 ZZW 1023,4 60 0 0,0
20.01.2018 04:00:00 7,2 5,7 5,9 9,8 10,5 10 6 19 10 ZW 1024,5 56 0 0,0
20.01.2018 03:00:00 7,2 5,8 5,6 9,8 10,4 13 7 18 10 ZZW 1025,2 48 0 0,0
20.01.2018 02:00:00 8,2 7,1 7,3 9,9 10,5 10 5 19 10 ZZW 1025,7 35 0 0,0
20.01.2018 01:00:00 8,1 7,2 7,5 9,9 10,4 12 7 18 10 WZW 1026,0 41 0 0,2
20.01.2018 00:00:00 8,0 7,1 6,9 9,9 10,4 10 6 17 9 ZW 1026,2 43 0 0,0
19.01.2018 23:00:00 7,8 6,9 6,7 9,9 10,5 13 7 30 16 WZW 1025,9 44 0 0,0
19.01.2018 22:00:00 8,5 7,4 8,0 9,9 10,5 16 8 26 14 WZW 1025,4 7 0 0,6
19.01.2018 21:00:00 8,6 7,5 8,1 9,8 10,4 9 5 21 11 W 1024,9 37 0 1,4
19.01.2018 20:00:00 8,9 7,7 8,0 9,8 10,4 16 9 30 16 WZW 1024,5 35 0 0,2
19.01.2018 19:00:00 9,0 7,6 8,0 9,8 10,4 16 8 37 20 W 1023,9 39 0 0,8
19.01.2018 18:00:00 9,7 7,6 8,7 9,7 10,4 16 9 30 16 WZW 1022,8 19 7 0,4
19.01.2018 17:00:00 11,0 7,1 11,0 9,7 10,4 19 10 30 16 WZW 1022,2 39 22 0,0
19.01.2018 16:00:00 11,8 6,7 11,9 9,6 10,4 23 12 42 23 W 1021,8 42 29 0,0
19.01.2018 15:00:00 11,6 8,3 11,4 9,6 10,4 21 11 29 16 W 1021,6 45 4 0,0
19.01.2018 14:00:00 11,9 8,4 12,4 9,6 10,4 18 10 37 20 ZW 1021,4 47 17 0,0
19.01.2018 13:00:00 11,7 8,9 11,6 9,5 10,4 17 9 29 16 W 1022,1 48 0 0,0
19.01.2018 12:00:00 11,1 8,8 10,6 9,5 10,4 20 11 37 20 W 1022,5 51 0 0,0
19.01.2018 11:00:00 11,0 9,3 9,6 9,5 10,4 18 10 28 15 WZW 1022,0 10 23 0,0
19.01.2018 10:00:00 10,1 9,3 9,3 9,5 10,4 9 5 24 13 WZW 1022,0 10 0 0,2
19.01.2018 09:00:00 9,8 9,0 8,9 9,5 10,4 13 7 25 14 WZW 1021,8 6 0 0,0
19.01.2018 08:00:00 9,3 8,5 8,7 9,5 10,4 9 5 21 12 WZW 1021,7 10 0 0,0
19.01.2018 07:00:00 9,8 9,0 9,3 9,5 10,4 15 8 24 13 W 1021,2 7 0 1,4
19.01.2018 06:00:00 10,3 9,2 9,7 9,5 10,4 16 9 30 16 WZW 1020,7 6 0 0,8
19.01.2018 05:00:00 10,6 8,9 9,5 9,5 10,4 16 9 28 15 WZW 1020,9 10 0 0,0
19.01.2018 04:00:00 10,6 8,9 9,7 9,5 10,4 16 9 27 14 W 1021,1 10 0 0,0
19.01.2018 03:00:00 10,6 8,4 10,0 9,5 10,4 16 9 23 13 WZW 1021,3 10 0 0,0
19.01.2018 02:00:00 10,4 8,2 9,8 9,5 10,4 15 8 26 14 W 1021,8 10 0 0,0
19.01.2018 01:00:00 10,4 7,1 9,4 9,5 10,4 13 7 19 10 WZW 1022,1 10 0 0,0
19.01.2018 00:00:00 9,9 6,4 9,0 9,5 10,4 4 2 8 5 - 1022,4 10 0 0,0
18.01.2018 23:00:00 9,7 6,6 8,8 9,5 10,4 5 3 17 9 ZW 1022,6 10 0 0,0
18.01.2018 22:00:00 9,5 6,9 8,6 9,4 10,4 13 7 18 10 WZW 1022,8 10 0 0,0
18.01.2018 21:00:00 8,9 7,0 6,4 9,5 10,4 11 6 18 10 W 1023,1 10 0 0,0
18.01.2018 20:00:00 8,2 6,5 5,5 9,4 10,4 8 4 14 7 W 1023,0 10 0 0,0
18.01.2018 19:00:00 7,8 5,8 5,3 9,3 10,4 13 7 22 12 W 1022,6 10 0 0,0
18.01.2018 18:00:00 9,3 6,0 8,2 9,2 10,4 16 9 24 13 WNW 1022,3 10 27 0,0
18.01.2018 17:00:00 11,3 6,2 11,3 9,2 10,4 18 10 27 15 NW 1022,0 36 49 0,0
18.01.2018 16:00:00 12,4 6,9 15,5 9,1 10,4 19 10 25 14 NW 1022,0 33 60 0,0
18.01.2018 15:00:00 12,4 6,2 15,7 9,1 10,4 16 9 24 13 WNW 1022,2 10 60 0,0
18.01.2018 14:00:00 12,2 6,5 14,6 9,1 10,4 16 9 29 16 WNW 1022,6 19 60 0,0
18.01.2018 13:00:00 11,3 6,0 14,2 9,1 10,4 18 10 29 15 WNW 1023,5 19 60 0,0
18.01.2018 12:00:00 10,9 6,8 14,3 9,1 10,4 13 7 22 12 WNW 1024,3 20 60 0,0
18.01.2018 11:00:00 9,0 4,8 8,8 9,2 10,4 5 3 11 6 Z 1024,9 10 60 0,0
18.01.2018 10:00:00 5,5 2,8 3,1 9,3 10,3 9 5 11 6 ZZO 1025,5 37 54 0,0
18.01.2018 09:00:00 3,2 1,6 1,1 9,3 10,3 8 4 16 9 ZO 1025,7 10 1 0,0
18.01.2018 08:00:00 3,2 1,9 0,6 9,4 10,3 9 5 11 6 ZO 1025,3 10 0 0,0
18.01.2018 07:00:00 2,7 1,5 0,8 9,5 10,4 5 3 10 5 ZO 1025,2 10 0 0,0
18.01.2018 06:00:00 3,4 2,2 0,8 9,5 10,3 8 4 10 5 ZO 1025,4 10 0 0,0
18.01.2018 05:00:00 3,9 2,4 1,7 9,5 10,3 5 3 10 5 OZO 1025,7 39 0 0,0
18.01.2018 04:00:00 5,9 2,7 3,3 9,6 10,3 4 2 10 6 ZZW 1026,1 10 0 0,0
18.01.2018 03:00:00 6,6 3,2 3,8 9,6 10,3 7 4 11 6 ZW 1026,8 43 0 0,0
18.01.2018 02:00:00 6,7 3,8 3,7 9,6 10,3 5 3 12 7 ZW 1027,1 10 0 0,0
18.01.2018 01:00:00 7,8 4,6 6,8 9,7 10,3 9 5 16 8 WZW 1027,4 10 0 0,0
18.01.2018 00:00:00 7,5 5,1 6,2 9,7 10,3 11 6 21 11 ZW 1027,5 10 0 0,0
17.01.2018 23:00:00 7,6 5,4 5,6 9,7 10,3 10 6 20 11 ZZW 1028,2 20 0 0,0
17.01.2018 22:00:00 7,1 5,4 5,6 9,7 10,3 9 5 18 10 ZW 1028,6 10 0 0,0
17.01.2018 21:00:00 7,7 6,0 6,4 9,7 10,3 10 6 22 12 ZZW 1028,4 20 0 0,0
17.01.2018 20:00:00 7,6 5,9 6,2 9,7 10,3 9 5 16 9 ZZW 1028,6 10 0 0,0
17.01.2018 19:00:00 7,7 6,2 6,3 9,7 10,3 11 6 22 12 ZW 1028,5 10 0 0,4
17.01.2018 18:00:00 8,3 6,4 7,4 9,7 10,3 9 5 20 11 ZW 1027,9 10 0 0,0
17.01.2018 17:00:00 8,6 7,4 8,0 9,6 10,3 9 5 16 9 ZW 1027,9 10 5 0,0
17.01.2018 16:00:00 8,6 7,1 8,1 9,6 10,3 9 5 30 16 WNW 1027,5 10 13 0,6
17.01.2018 15:00:00 9,1 7,4 8,3 9,6 10,3 11 6 28 15 WNW 1027,5 10 0 0,6
17.01.2018 14:00:00 8,6 5,9 7,7 9,6 10,3 18 10 46 25 W 1027,7 10 11 0,2
17.01.2018 13:00:00 10,4 6,3 8,7 9,6 10,3 21 11 30 16 W 1028,0 10 26 0,0
17.01.2018 12:00:00 8,9 7,3 7,8 9,6 10,3 18 10 39 21 W 1028,8 42 0 0,4
17.01.2018 11:00:00 8,5 7,1 7,9 9,6 10,3 21 12 39 21 WNW 1028,4 7 0 0,8
17.01.2018 10:00:00 8,7 7,5 7,9 9,6 10,3 18 10 32 17 W 1027,3 7 0 0,6
17.01.2018 09:00:00 8,7 7,1 7,7 9,7 10,3 19 10 40 22 W 1026,2 7 0 1,4
17.01.2018 08:00:00 8,8 6,9 7,8 9,6 10,3 28 15 48 26 W 1025,2 10 0 1,6

tt = temperatuur
td = dauwpunt
tt 5cm = temperatuur 5cm
tt -20cm = temperatuur -20cm
tt -100cm = temperatuur -100cm
ff = windsnelheid
fx = windstoten
dd = windrichting
ppp = luchtdruk
vv = zicht
sd = Zonneschijnduur
rr = neerslag

Weerstations in de omgeving